Date,TemperatureHighF,TemperatureAvgF,TemperatureLowF,DewpointHighF,DewpointAvgF,DewpointLowF,HumidityHigh,HumidityAvg,HumidityLow,PressureMaxIn,PressureMinIn,WindSpeedMaxMPH,WindSpeedAvgMPH,GustSpeedMaxMPH,PrecipitationSumIn
2013-1-1,24.3,12.4,-7.8,19.8,9.0,-11.9,89,86,81,30.41,30.09,9,1,9,0.00
2013-1-2,31.8,19.5,10.6,26.8,16.1,7.2,95,86,75,30.29,30.00,13,2,14,0.00
2013-1-3,20.5,11.0,2.5,15.8,7.2,-0.9,92,84,78,30.43,30.15,12,2,12,0.00
2013-1-4,28.9,21.3,10.9,20.3,15.4,7.7,91,78,66,30.21,30.13,7,1,7,0.00
2013-1-5,23.4,11.4,2.3,16.5,7.3,-1.1,92,84,72,30.25,29.99,14,2,15,0.00
2013-1-6,22.1,14.4,8.2,18.0,10.7,5.2,91,85,75,30.33,29.95,11,1,11,0.00
2013-1-7,38.1,28.7,21.9,28.4,23.1,17.8,89,80,66,30.03,29.93,9,1,9,0.00
2013-1-8,36.1,26.3,17.4,30.4,22.5,14.2,90,85,78,30.01,29.76,10,1,10,0.00
2013-1-9,36.0,30.9,27.0,29.7,24.6,20.8,85,77,65,30.38,30.01,16,3,18,0.00
2013-1-10,38.7,35.1,29.8,32.2,29.8,25.9,95,82,62,30.22,29.65,11,1,14,0.19
2013-1-11,36.1,33.0,19.0,35.2,31.8,16.9,97,95,90,29.65,29.39,14,1,15,0.02
2013-1-12,19.0,8.8,4.1,16.7,4.2,-0.4,91,81,72,30.23,29.52,16,5,18,0.00
2013-1-13,10.2,5.1,0.7,5.0,0.0,-4.2,84,79,71,30.37,30.21,11,2,11,0.00
2013-1-14,10.8,5.1,-1.8,4.8,0.5,-5.4,87,81,70,30.54,30.37,5,0,5,0.00
2013-1-15,25.0,15.0,4.3,17.1,9.2,0.9,89,78,67,30.37,29.83,8,1,8,0.00
2013-1-16,36.9,23.0,1.8,33.6,18.4,-5.8,92,82,67,30.38,29.74,12,3,13,0.03
2013-1-17,24.4,12.0,-0.9,18.0,5.2,-9.0,81,74,64,30.51,30.29,9,1,9,0.00
2013-1-18,40.5,30.5,17.2,31.5,25.9,11.7,92,83,67,30.29,29.80,9,1,12,0.00
2013-1-19,39.4,21.9,0.9,32.5,16.8,-4.7,91,81,65,30.42,29.75,27,5,27,0.00
2013-1-20,10.2,2.7,-6.3,4.6,-3.4,-15.0,83,75,65,30.55,30.41,15,4,16,0.00
2013-1-21,0.9,-5.7,-11.0,-6.9,-12.3,-17.1,80,72,65,30.55,30.45,15,3,18,0.00
2013-1-22,6.6,-1.5,-11.4,1.6,-7.6,-15.5,83,75,63,30.53,30.34,5,0,5,0.00
2013-1-23,9.1,2.1,-9.6,5.4,-3.7,-16.1,88,77,66,30.77,30.28,19,2,19,0.00
2013-1-24,14.4,2.9,-9.8,7.7,-4.5,-16.1,75,71,66,30.80,30.21,13,1,15,0.00
2013-1-25,21.2,9.5,-1.7,16.5,3.1,-5.6,83,75,65,30.43,30.09,21,4,21,0.00
2013-1-26,21.9,9.5,-3.5,14.5,3.8,-7.2,84,77,68,30.44,30.09,8,0,9,0.00
2013-1-27,33.3,28.7,18.0,31.5,25.2,13.1,95,87,75,30.09,29.83,7,0,7,0.02
2013-1-28,36.9,33.4,31.6,34.9,32.1,30.6,97,95,92,29.90,29.68,5,0,5,0.00
2013-1-29,31.6,25.9,20.8,30.6,23.5,16.7,96,90,82,29.92,29.65,15,3,15,0.01
2013-1-30,20.8,9.8,-2.7,16.5,5.1,-8.0,84,81,78,30.00,29.87,17,5,17,0.00
2013-1-31,-2.7,-7.2,-10.8,-7.8,-12.7,-16.2,80,76,72,30.49,30.00,17,6,20,0.00
2013-2-1,10.2,-1.0,-14.1,6.6,-6.2,-18.8,86,78,68,30.49,30.15,6,0,8,0.00
2013-2-2,16.7,8.2,-0.4,13.6,4.4,-3.8,89,84,75,30.31,30.05,14,1,14,0.01
2013-2-3,16.3,12.5,7.3,10.6,8.1,3.6,88,82,76,30.24,30.03,14,1,14,0.00
2013-2-4,21.2,11.4,0.0,18.5,7.4,-3.6,92,84,75,30.18,29.78,6,1,7,0.02
2013-2-5,31.3,19.6,9.7,30.2,16.0,5.4,96,86,77,30.17,29.75,13,2,13,0.00
2013-2-6,34.3,20.9,7.2,28.8,17.1,3.9,90,85,78,30.17,29.91,11,0,11,0.00
2013-2-7,27.3,23.8,19.2,23.4,20.5,16.5,93,87,80,30.38,30.09,10,1,10,0.00
2013-2-8,27.7,20.2,8.2,22.8,16.6,5.4,93,86,75,30.42,30.15,10,1,10,0.00
2013-2-9,33.3,29.8,23.2,30.7,27.4,20.7,93,90,87,30.15,29.85,13,1,13,0.04
2013-2-10,31.3,28.9,26.1,29.5,27.3,24.3,96,94,89,29.85,29.36,14,2,14,0.38
2013-2-11,26.1,21.9,17.4,24.3,19.1,14.2,94,89,82,30.14,29.58,21,5,21,0.00
2013-2-12,31.8,22.5,14.7,23.2,17.9,12.0,92,83,67,30.12,29.90,9,1,10,0.00
2013-2-13,37.9,29.1,18.3,32.7,25.5,15.6,95,87,67,29.90,29.63,14,1,14,0.01
2013-2-14,29.1,18.6,3.4,27.3,14.8,0.1,93,85,75,30.36,29.76,13,3,14,0.00
2013-2-15,16.0,7.5,-0.8,9.5,3.6,-4.0,88,84,71,30.48,30.36,9,1,9,0.00
2013-2-16,19.9,11.2,0.0,14.5,7.7,-3.5,90,86,77,30.39,30.13,7,0,7,0.00
2013-2-17,35.8,25.8,12.0,30.6,21.9,9.5,92,85,76,30.13,29.57,12,1,13,0.00
2013-2-18,35.2,17.3,-0.6,32.4,13.6,-4.7,92,85,76,30.12,29.57,21,6,22,0.00
2013-2-19,0.3,-4.4,-11.0,-3.8,-9.5,-15.5,83,78,72,30.60,30.12,18,5,20,0.00
2013-2-20,8.2,-3.8,-16.8,0.5,-8.9,-21.1,84,78,68,30.63,30.51,7,0,7,0.00
2013-2-21,18.7,10.6,-2.7,13.3,5.3,-6.2,87,79,73,30.53,30.19,8,1,8,0.00
2013-2-22,24.1,19.2,12.6,19.8,16.1,10.0,92,87,78,30.19,30.00,9,1,9,0.03
2013-2-23,24.1,13.1,1.0,16.2,8.9,-2.7,91,84,65,30.06,29.96,5,0,5,0.00
2013-2-24,23.9,9.6,-5.1,15.8,5.2,-8.7,92,83,69,30.22,30.06,5,0,6,0.00
2013-2-25,26.6,18.4,6.6,23.5,16.2,3.7,94,91,87,30.21,30.12,5,0,5,0.00
2013-2-26,27.7,21.6,16.3,24.4,19.7,14.4,94,92,87,30.15,30.04,9,1,9,0.00
2013-2-27,28.8,20.5,13.5,23.0,17.0,10.4,92,86,72,30.20,30.06,18,3,23,0.00
2013-2-28,27.1,22.9,16.5,23.2,19.9,14.4,92,88,84,30.34,30.20,8,1,8,0.00
2013-3-1,27.0,17.8,7.9,18.9,13.7,5.5,92,84,70,30.48,30.33,8,1,8,0.00
2013-3-2,26.2,15.5,0.1,19.6,10.9,-3.1,91,82,66,30.46,30.18,6,0,6,0.00
2013-3-3,34.2,25.4,16.7,27.1,20.8,14.0,91,83,73,30.19,29.93,13,1,13,0.01
2013-3-4,29.1,26.1,24.3,26.6,24.0,21.7,95,91,89,30.02,29.88,9,1,10,0.10
2013-3-5,29.8,24.5,17.2,25.5,21.9,14.5,95,90,81,30.44,29.99,16,2,16,0.02
2013-3-6,23.5,21.0,18.9,18.1,16.9,16.2,89,84,76,30.52,30.40,9,1,9,0.00
2013-3-7,27.5,21.5,17.8,21.0,17.5,15.1,90,84,75,30.42,30.25,11,1,13,0.00
2013-3-8,32.7,24.1,13.6,31.5,20.8,11.3,95,87,75,30.34,30.07,8,1,8,0.13
2013-3-9,35.4,32.9,27.9,34.7,31.9,25.5,97,96,91,30.07,29.72,12,1,12,0.74
2013-3-10,27.9,23.6,18.1,25.5,20.8,14.9,91,89,84,30.14,29.93,16,4,17,0.00
2013-3-11,27.0,18.4,6.6,22.6,13.4,3.0,87,81,64,30.08,29.92,10,3,11,0.00
2013-3-12,28.9,23.6,16.7,25.5,19.2,13.8,88,83,73,30.37,29.95,18,5,20,0.00
2013-3-13,28.6,19.6,7.5,24.8,14.6,5.0,90,81,65,30.50,30.22,11,1,11,0.00
2013-3-14,37.6,31.2,24.6,30.6,26.8,21.9,93,84,74,30.22,30.06,7,0,8,0.00
2013-3-15,34.5,30.6,26.2,31.5,28.5,24.3,96,92,88,30.09,29.86,8,1,8,0.00
2013-3-16,28.0,14.1,5.7,26.6,10.2,1.6,95,84,76,30.38,30.01,10,3,11,0.00
2013-3-17,29.7,17.0,3.0,28.0,11.8,-0.4,94,80,69,30.39,29.73,13,1,13,0.06
2013-3-18,34.2,19.7,9.7,32.4,14.8,4.5,94,81,71,30.06,29.64,22,8,23,0.09
2013-3-19,18.9,11.1,3.7,8.6,4.0,-1.5,82,73,60,30.43,30.06,16,5,16,0.00
2013-3-20,19.4,10.6,2.7,9.1,3.4,-2.0,82,73,57,30.46,30.28,16,4,16,0.00
2013-3-21,21.4,10.5,-2.6,13.1,4.9,-6.2,87,78,66,30.28,30.16,9,1,9,0.00
2013-3-22,25.9,15.1,0.9,16.9,9.6,-2.6,89,79,65,30.22,30.16,6,1,6,0.00
2013-3-23,28.2,21.3,13.1,18.9,15.6,10.0,89,79,61,30.28,30.20,8,2,8,0.00
2013-3-24,31.6,22.8,14.7,27.9,19.3,12.0,90,86,78,30.25,30.13,12,2,12,0.00
2013-3-25,31.5,25.6,18.9,24.1,20.9,15.4,89,82,72,30.40,30.20,14,3,15,0.00
2013-3-26,28.8,19.9,11.8,21.7,15.6,9.1,92,83,71,30.44,30.35,7,2,7,0.00
2013-3-27,37.9,25.7,10.9,30.4,21.3,8.4,93,84,70,30.41,30.34,8,0,8,0.00
2013-3-28,42.1,35.0,27.3,34.9,30.3,23.4,92,83,73,30.37,30.25,10,1,10,0.00
2013-3-29,48.9,40.1,30.0,42.8,36.2,28.8,96,86,76,30.28,29.97,6,0,8,0.00
2013-3-30,43.5,38.1,32.4,40.8,35.2,30.7,97,90,79,30.00,29.92,11,2,12,0.00
2013-3-31,34.5,30.0,21.4,32.0,24.7,16.7,96,81,64,30.27,29.92,17,4,20,0.00
2013-4-1,30.9,23.7,17.1,21.0,16.9,13.3,86,76,61,30.41,30.27,11,2,11,0.00
2013-4-2,35.4,26.9,18.0,23.2,19.7,15.8,93,75,50,30.43,30.36,10,1,11,0.00
2013-4-3,56.7,38.3,22.6,41.2,29.8,19.9,91,73,52,30.43,30.01,11,1,13,0.00
2013-4-4,47.7,36.8,27.5,35.4,30.1,23.9,88,77,61,30.28,30.01,14,3,15,0.00
2013-4-5,38.3,31.7,24.3,32.7,27.5,21.6,91,84,73,30.30,29.79,13,1,14,0.00
2013-4-6,46.6,39.6,33.1,40.6,35.3,30.6,92,85,74,29.87,29.56,13,2,14,0.00
2013-4-7,46.4,37.5,32.0,41.5,34.4,29.7,97,89,75,29.97,29.74,10,1,10,0.14
2013-4-8,44.2,40.5,34.3,41.9,38.9,31.5,98,94,88,30.13,29.72,10,1,10,0.00
2013-4-9,34.2,30.4,24.6,31.3,24.9,21.4,91,80,65,30.27,30.07,15,3,20,0.14
2013-4-10,35.8,32.8,31.1,30.6,27.9,25.0,95,82,66,30.26,29.96,13,2,14,0.14
2013-4-11,34.2,31.4,28.2,32.2,29.6,27.0,96,93,87,29.97,29.75,12,3,12,0.41
2013-4-12,35.4,30.5,27.7,28.8,27.1,25.5,94,87,76,29.96,29.81,12,3,12,0.00
2013-4-13,35.1,30.8,27.1,27.7,26.5,25.0,93,84,73,29.99,29.93,11,2,11,0.00
2013-4-14,35.1,31.9,29.3,34.3,30.1,27.0,97,93,86,29.94,29.46,15,2,15,0.40
2013-4-15,39.9,35.3,31.8,32.2,30.0,27.3,90,81,70,30.09,29.45,18,6,18,0.00
2013-4-16,39.6,32.9,26.1,31.6,27.7,23.2,90,81,70,30.39,30.07,12,2,12,0.00
2013-4-17,38.8,34.6,32.2,33.3,31.1,28.4,96,87,78,30.40,30.06,12,1,12,0.11
2013-4-18,33.3,32.3,29.8,32.2,31.0,28.2,96,95,93,30.06,29.77,16,2,16,0.38
2013-4-19,35.2,29.9,24.4,28.2,25.1,20.7,93,82,72,30.13,29.75,16,2,17,0.00
2013-4-20,37.6,28.3,16.9,30.0,21.8,14.7,95,78,48,30.33,30.13,7,1,7,0.03
2013-4-21,45.3,37.7,30.9,40.3,34.8,29.5,96,89,78,30.30,30.04,11,2,11,0.16
2013-4-22,34.2,31.6,28.6,31.5,29.4,26.1,95,91,87,30.34,30.22,9,2,12,0.19
2013-4-23,37.9,29.6,19.6,28.8,24.0,17.4,91,80,61,30.34,30.15,10,3,12,0.00
2013-4-24,43.5,34.4,26.6,37.2,29.1,23.4,94,81,62,30.15,29.99,18,3,18,0.03
2013-4-25,54.3,38.9,25.5,41.4,30.2,22.5,88,72,51,30.26,29.96,5,2,10,0.00
2013-4-26,69.6,53.9,37.8,48.6,39.2,33.6,90,61,29,30.15,29.91,11,2,11,0.00
2013-4-27,76.5,58.9,36.3,44.6,38.0,32.9,90,52,24,30.15,29.81,11,1,13,0.00
2013-4-28,81.0,62.4,51.3,51.3,46.8,39.4,82,59,33,29.83,29.65,15,2,15,0.00
2013-4-29,75.7,57.8,37.9,52.7,38.6,32.0,81,53,24,29.87,29.42,7,1,8,0.00
2013-4-30,66.4,59.8,48.6,55.8,41.9,27.9,82,54,26,30.03,29.28,18,4,18,0.00
2013-5-1,48.2,39.7,34.9,33.8,27.3,21.9,74,61,52,30.61,30.02,16,3,16,0.00
2013-5-2,47.5,37.9,29.8,28.8,26.3,24.6,84,64,44,30.71,30.53,16,3,16,0.00
2013-5-3,50.4,38.3,25.2,28.8,24.9,21.6,86,61,37,30.54,30.23,15,2,15,0.00
2013-5-4,41.5,38.4,36.0,38.1,35.6,29.1,96,90,62,30.26,30.20,12,2,13,0.05
2013-5-5,51.6,44.1,38.5,45.1,41.2,37.6,98,90,77,30.26,30.16,7,1,7,0.02
2013-5-6,70.0,55.0,41.4,51.8,46.0,39.6,94,74,49,30.18,30.03,8,1,8,0.00
2013-5-7,79.0,62.7,42.3,51.8,44.9,39.4,92,57,28,30.08,29.91,7,0,7,0.00
2013-5-8,64.6,58.9,55.0,57.9,54.4,48.0,96,86,56,30.02,29.94,7,0,7,0.30
2013-5-9,59.9,54.6,47.7,54.7,51.4,40.1,97,89,74,30.16,29.99,12,2,14,0.13
2013-5-10,70.0,52.5,37.0,49.3,36.4,27.1,88,59,26,30.19,29.91,20,2,20,0.01
2013-5-11,54.3,46.0,37.9,36.1,26.9,19.0,75,50,26,30.27,30.06,21,4,22,0.00
2013-5-12,61.9,47.9,30.2,28.9,23.7,18.5,75,42,19,30.31,30.11,12,1,12,0.00
2013-5-13,86.9,66.2,46.2,53.8,39.6,25.2,53,39,23,30.11,29.62,13,2,13,0.00
2013-5-14,95.2,74.4,55.0,55.8,45.1,27.3,69,40,12,29.77,29.48,21,3,21,0.00
2013-5-15,82.0,65.2,50.2,54.1,47.4,42.1,76,55,27,29.93,29.77,10,1,11,0.00
2013-5-16,85.5,69.7,49.5,53.1,45.6,38.1,80,47,21,29.89,29.76,12,0,13,0.00
2013-5-17,72.7,64.1,59.4,63.3,54.4,41.7,92,72,42,29.88,29.82,13,1,13,0.00
2013-5-18,83.7,70.9,60.1,68.9,63.0,57.4,95,78,54,29.87,29.68,9,0,10,0.01
2013-5-19,77.2,67.9,62.1,67.8,63.9,61.0,98,87,69,29.69,29.50,12,1,13,0.60
2013-5-20,69.8,62.9,60.6,63.5,59.4,55.8,99,89,65,29.52,29.43,12,0,12,0.08
2013-5-21,60.6,55.0,48.6,58.3,53.7,47.5,97,96,88,29.75,29.45,8,1,9,0.43
2013-5-22,54.1,49.5,45.9,51.1,47.7,44.4,97,94,80,30.08,29.75,13,2,13,0.22
2013-5-23,64.4,53.3,41.5,47.7,42.3,35.8,95,70,36,30.33,30.08,9,1,9,0.00
2013-5-24,70.3,55.0,42.6,55.4,45.2,36.5,93,72,35,30.33,30.12,12,1,12,0.08
2013-5-25,59.9,55.8,52.9,54.3,51.3,49.6,90,85,75,30.17,30.09,13,1,13,0.00
2013-5-26,55.2,52.7,49.6,51.3,49.4,46.4,93,89,82,30.18,30.01,16,1,16,0.00
2013-5-27,62.4,56.8,52.5,57.2,53.9,50.7,97,90,82,30.04,29.80,9,1,10,0.00
2013-5-28,67.5,58.8,55.0,60.3,56.1,54.0,98,91,77,29.80,29.69,5,0,5,0.00
2013-5-29,80.1,64.2,53.8,72.3,61.6,53.2,99,92,71,29.79,29.50,11,1,13,1.10
2013-5-30,78.3,68.2,62.2,66.2,62.6,59.5,98,83,60,29.54,29.40,12,1,12,0.04
2013-5-31,67.1,62.1,57.4,61.9,55.5,52.2,95,79,66,29.51,29.39,18,1,18,0.04
2013-6-1,60.6,56.4,52.9,57.7,52.1,47.1,93,86,75,30.03,29.51,15,2,15,0.04
2013-6-2,66.7,57.2,46.0,48.9,44.9,38.8,91,66,41,30.14,30.01,8,1,9,0.00
2013-6-3,69.3,58.7,44.2,54.1,45.9,41.4,91,64,43,30.04,29.88,13,1,13,0.00
2013-6-4,65.1,59.3,54.3,61.3,55.6,46.8,96,88,61,30.00,29.89,8,1,9,0.17
2013-6-5,65.1,58.9,50.9,57.2,53.1,48.7,96,82,62,30.00,29.95,6,0,7,0.00
2013-6-6,61.3,56.5,52.2,54.5,51.5,49.3,93,84,72,30.06,30.00,7,0,8,0.00
2013-6-7,69.3,58.1,46.0,54.9,49.9,44.8,98,76,50,30.07,29.89,6,0,7,0.00
2013-6-8,65.3,59.3,55.4,57.7,54.1,49.6,93,83,69,29.90,29.82,9,0,9,0.12
2013-6-9,63.7,59.3,56.8,61.3,57.9,55.9,98,95,90,29.86,29.70,9,1,12,0.83
2013-6-10,75.4,63.6,55.0,64.9,58.9,54.5,99,86,61,29.90,29.78,6,0,6,0.00
2013-6-11,78.4,67.2,57.7,70.0,61.3,56.8,98,83,51,29.94,29.77,7,0,8,0.02
2013-6-12,68.4,62.4,57.7,64.6,58.8,54.7,97,88,75,30.03,29.75,10,1,10,1.18
2013-6-13,76.6,65.6,52.0,61.9,56.1,50.4,95,73,47,30.14,30.00,6,0,6,0.00
2013-6-14,81.9,71.0,62.8,68.4,62.6,57.6,87,75,59,30.04,29.76,14,1,15,0.00
2013-6-15,79.7,70.8,63.1,65.3,59.3,50.0,97,70,38,29.91,29.79,8,0,8,0.00
2013-6-16,83.8,70.9,55.9,61.7,54.6,49.8,84,59,34,29.93,29.83,9,1,9,0.00
2013-6-17,79.2,70.0,58.8,62.2,56.9,53.2,83,64,48,29.98,29.88,8,1,9,0.00
2013-6-18,76.5,66.3,55.8,64.4,58.7,54.9,98,78,52,30.09,29.96,10,0,11,0.31
2013-6-19,86.2,73.7,61.3,67.3,61.3,55.6,92,68,37,29.99,29.83,6,0,6,0.00
2013-6-20,86.2,77.9,70.2,72.5,67.8,62.8,85,72,58,29.91,29.70,11,1,11,0.00
2013-6-21,81.3,69.6,63.3,71.6,65.3,61.7,97,87,68,29.97,29.66,14,1,14,1.28
2013-6-22,78.8,70.6,64.0,71.6,66.8,62.4,98,88,69,29.94,29.72,7,0,9,0.21
2013-6-23,79.0,71.7,64.2,70.0,65.4,61.2,98,82,58,29.85,29.61,7,1,8,0.79
2013-6-24,77.0,69.2,61.0,72.0,66.4,59.5,97,91,80,29.87,29.71,5,0,7,0.11
2013-6-25,86.7,75.8,66.0,77.7,71.3,65.1,98,87,70,29.76,29.61,9,0,9,0.00
2013-6-26,84.4,75.8,66.7,72.9,68.0,61.2,99,79,49,29.82,29.60,8,1,8,0.10
2013-6-27,83.8,75.4,66.4,67.5,62.8,55.0,95,67,41,29.87,29.78,13,1,13,0.10
2013-6-28,79.9,72.7,65.5,63.5,60.0,56.7,79,65,48,29.88,29.83,15,2,16,0.00
2013-6-29,80.1,70.3,61.5,65.5,59.0,53.6,90,69,45,29.99,29.82,11,1,12,0.00
2013-6-30,80.1,68.5,56.7,61.2,55.1,47.8,93,65,35,30.14,29.99,6,0,6,0.00
2013-7-1,84.4,71.7,58.6,64.8,58.1,52.3,95,65,34,30.20,30.12,2,0,5,0.00
2013-7-2,84.0,71.4,59.5,67.6,61.1,54.1,95,72,38,30.14,30.02,6,0,8,0.00
2013-7-3,83.7,72.1,60.4,64.0,58.0,49.8,89,64,34,30.04,29.89,7,0,7,0.00
2013-7-4,88.0,75.8,63.7,66.7,60.8,54.9,83,61,40,29.90,29.74,9,0,9,0.00
2013-7-5,87.8,78.5,70.5,70.7,65.0,58.6,75,64,47,29.78,29.70,7,0,8,0.00
2013-7-6,81.7,74.7,68.0,75.2,70.2,64.6,97,86,72,29.79,29.72,5,0,5,0.97
2013-7-7,87.6,77.9,69.6,79.0,71.5,63.5,93,81,55,29.90,29.75,9,0,10,0.00
2013-7-8,86.4,75.1,62.6,74.8,67.1,60.3,93,77,55,29.97,29.87,4,0,5,0.00
2013-7-9,81.9,73.9,65.1,72.9,68.3,62.1,97,83,68,29.99,29.70,12,2,12,0.88
2013-7-10,77.7,68.3,58.3,65.8,60.8,56.7,95,78,53,30.10,29.99,7,0,7,0.00
2013-7-11,83.8,72.4,60.1,70.2,63.7,58.1,94,76,56,30.08,29.87,10,0,10,0.00
2013-7-12,89.1,78.6,68.4,75.4,68.2,61.3,81,71,60,29.89,29.75,14,1,14,0.00
2013-7-13,81.7,76.1,70.3,74.3,69.6,66.6,90,80,72,29.96,29.79,8,1,8,0.00
2013-7-14,74.8,69.3,65.8,69.4,67.3,64.9,99,94,76,30.15,29.94,5,0,5,1.18
2013-7-15,84.6,74.7,66.6,74.7,69.7,66.2,99,86,60,30.19,30.08,5,0,6,0.00
2013-7-16,86.2,77.9,70.2,75.7,71.0,68.4,96,80,56,30.17,30.09,6,0,7,0.00
2013-7-17,88.2,79.1,70.2,77.5,71.9,66.7,90,79,61,30.19,30.04,6,0,6,0.00
2013-7-18,89.1,80.8,72.3,77.2,73.1,68.9,90,78,61,30.05,29.71,8,1,9,0.00
2013-7-19,80.4,75.5,69.1,72.5,66.9,63.0,90,75,58,29.90,29.72,8,1,10,0.00
2013-7-20,77.5,69.8,62.1,68.4,64.7,60.6,97,84,64,29.95,29.87,8,0,8,0.00
2013-7-21,83.7,73.1,62.6,73.2,66.6,60.4,96,81,60,29.90,29.71,5,0,5,0.03
2013-7-22,78.6,71.8,61.3,72.5,65.8,57.7,98,82,66,29.89,29.64,11,1,12,0.10
2013-7-23,75.6,65.2,55.6,63.5,58.6,54.5,97,81,55,30.02,29.89,6,0,7,0.00
2013-7-24,77.9,68.6,59.7,65.8,60.9,57.0,96,78,56,30.06,29.94,5,0,6,0.00
2013-7-25,75.7,69.1,63.7,69.4,65.2,59.4,98,88,69,29.98,29.90,7,0,7,0.41
2013-7-26,68.5,62.0,55.8,59.5,54.7,51.1,92,78,58,30.13,29.95,13,2,14,0.00
2013-7-27,68.0,59.2,50.7,55.8,50.1,46.9,92,73,50,30.16,29.99,11,1,12,0.00
2013-7-28,72.7,60.5,47.8,57.4,51.6,45.9,94,74,50,30.07,30.01,8,0,8,0.00
2013-7-29,75.6,62.3,51.3,62.4,56.9,50.2,97,84,51,30.10,30.04,6,0,7,0.15
2013-7-30,74.3,66.7,61.3,68.0,63.9,60.1,98,91,77,30.08,30.00,3,0,4,0.00
2013-7-31,77.0,66.6,58.5,69.6,61.3,54.7,98,84,56,30.12,30.01,6,0,6,0.02
2013-8-1,78.3,66.7,55.2,67.6,59.2,53.2,94,78,53,30.06,29.88,5,0,5,0.00
2013-8-2,74.1,64.8,55.6,64.0,58.1,54.1,96,80,53,30.07,29.88,6,0,8,0.00
2013-8-3,76.1,63.9,52.0,63.5,55.3,50.5,96,76,49,30.21,30.07,7,0,7,0.00
2013-8-4,74.5,63.1,52.2,61.7,56.1,49.6,94,79,56,30.24,29.94,6,0,6,0.00
2013-8-5,78.1,68.8,62.6,71.2,64.9,61.2,98,88,66,30.01,29.80,7,0,7,1.14
2013-8-6,82.2,69.1,59.7,71.2,64.2,59.0,98,86,63,29.85,29.68,13,1,14,0.02
2013-8-7,73.4,65.2,58.8,61.9,58.3,53.8,97,80,54,30.01,29.83,6,0,7,0.00
2013-8-8,71.2,63.7,58.5,65.3,60.4,55.0,97,89,76,30.04,29.97,5,0,5,0.31
2013-8-9,72.3,63.1,54.1,61.0,56.8,53.2,98,81,55,30.14,30.02,8,0,8,0.00
2013-8-10,74.1,63.7,53.1,65.7,58.5,52.0,97,84,61,30.20,30.05,4,0,4,0.00
2013-8-11,78.3,68.5,62.1,69.4,63.9,61.3,98,86,62,30.07,29.99,4,0,5,0.00
2013-8-12,75.7,66.1,55.8,63.1,59.1,54.1,95,80,54,30.09,30.03,8,0,8,0.00
2013-8-13,74.1,63.0,50.9,62.2,54.8,49.3,96,77,46,30.21,30.09,6,0,7,0.00
2013-8-14,75.0,63.3,51.4,62.2,55.9,50.2,96,79,51,30.20,30.08,5,0,5,0.00
2013-8-15,76.5,65.6,55.8,64.2,59.1,54.7,97,81,55,30.13,30.06,4,0,5,0.00
2013-8-16,76.5,64.6,54.0,63.9,58.7,53.1,98,83,59,30.18,30.12,7,0,7,0.00
2013-8-17,79.7,67.9,56.5,69.3,61.6,55.0,95,81,63,30.15,30.04,10,0,10,0.00
2013-8-18,78.4,68.8,59.0,68.5,61.9,56.1,91,80,64,30.07,29.93,11,0,11,0.00
2013-8-19,85.6,74.6,66.4,75.9,68.8,61.9,92,83,67,29.97,29.81,7,0,8,0.00
2013-8-20,87.8,77.5,68.2,79.0,73.2,66.9,97,87,71,29.84,29.77,6,0,6,0.00
2013-8-21,87.3,76.7,68.5,78.1,71.9,62.8,97,86,59,29.98,29.75,7,0,7,0.00
2013-8-22,81.0,70.8,61.0,64.0,59.2,53.8,90,69,42,30.13,29.98,6,0,7,0.00
2013-8-23,84.6,71.1,56.1,74.3,65.5,55.0,97,83,65,30.11,29.94,9,1,9,0.00
2013-8-24,88.2,79.2,72.0,77.0,72.9,69.4,93,82,63,29.95,29.79,10,1,11,0.00
2013-8-25,90.7,82.5,75.9,80.4,75.4,71.2,89,80,67,29.91,29.84,8,0,8,0.00
2013-8-26,91.6,82.3,74.1,80.2,75.6,71.6,93,81,63,29.90,29.74,9,0,9,0.00
2013-8-27,90.9,80.9,73.6,83.3,76.2,71.1,95,86,72,29.87,29.73,5,0,5,0.00
2013-8-28,88.3,77.4,67.8,78.8,73.2,67.1,98,88,66,29.99,29.87,8,0,8,0.00
2013-8-29,83.5,78.2,74.7,75.4,74.4,73.2,96,88,76,29.92,29.78,3,0,3,0.00
2013-8-30,84.0,74.9,67.3,73.9,69.0,65.3,97,83,61,29.93,29.83,6,0,6,0.00
2013-8-31,87.3,70.9,61.9,75.0,66.9,61.0,98,88,59,29.88,29.68,9,0,12,1.35
2013-9-1,67.6,62.4,54.7,66.6,59.3,53.2,98,90,77,30.04,29.81,11,1,12,0.00
2013-9-2,70.2,58.6,48.6,59.5,53.4,47.7,98,84,60,30.14,30.03,8,0,8,0.00
2013-9-3,78.3,64.0,51.6,69.3,59.8,50.5,97,87,67,30.07,29.97,5,0,5,0.00
2013-9-4,83.7,70.9,59.9,75.0,67.0,59.2,98,88,70,30.11,29.99,5,0,5,0.00
2013-9-5,84.6,72.4,61.2,72.9,66.2,58.5,91,82,60,30.15,30.02,6,0,7,0.00
2013-9-6,89.1,76.1,66.4,77.2,69.4,63.5,96,81,58,30.03,29.79,6,0,7,0.00
2013-9-7,89.4,76.8,66.9,76.6,70.9,66.4,99,84,57,29.96,29.83,6,0,7,0.00
2013-9-8,73.0,68.5,63.1,70.3,65.3,60.6,94,89,82,30.00,29.83,7,0,8,0.00
2013-9-9,86.4,74.0,65.5,78.4,69.6,63.0,98,87,61,29.83,29.59,7,1,7,0.06
2013-9-10,80.2,71.1,65.8,67.6,64.8,61.2,98,82,54,29.98,29.78,7,1,7,0.04
2013-9-11,82.6,69.5,58.6,66.2,58.3,50.2,95,71,36,30.12,29.98,8,0,9,0.00
2013-9-12,73.8,60.6,49.3,57.9,52.2,47.7,95,76,51,30.26,30.12,10,0,10,0.00
2013-9-13,72.0,58.1,45.1,54.7,49.6,44.1,98,76,47,30.27,30.04,5,0,5,0.00
2013-9-14,59.4,55.8,49.6,58.1,53.2,46.4,96,91,78,30.05,29.81,5,0,5,0.44
2013-9-15,68.4,58.4,47.5,60.1,55.2,46.0,98,90,67,30.33,29.86,7,0,7,0.36
2013-9-16,66.4,54.2,43.9,52.5,47.5,43.2,98,80,46,30.41,30.20,8,0,8,0.00
2013-9-17,64.4,57.4,50.5,59.2,54.6,48.6,96,91,82,30.20,29.87,11,1,11,0.00
2013-9-18,83.7,71.4,59.4,74.3,67.5,57.9,99,88,71,29.87,29.57,10,0,11,0.00
2013-9-19,72.9,67.5,56.8,69.8,62.6,52.2,98,85,58,29.88,29.56,9,1,9,0.71
2013-9-20,59.4,54.1,46.6,53.8,50.5,44.6,96,88,68,29.99,29.86,8,2,8,0.04
2013-9-21,64.6,51.4,39.9,52.5,46.1,38.8,98,83,53,30.06,29.89,4,0,5,0.01
2013-9-22,81.0,63.0,50.0,62.8,53.1,46.8,90,72,42,29.91,29.70,10,1,11,0.00
2013-9-23,76.3,64.6,56.7,60.3,54.7,51.8,85,72,48,29.85,29.73,12,1,12,0.00
2013-9-24,70.7,60.5,54.9,59.7,54.9,51.4,96,82,64,29.94,29.85,8,0,8,0.00
2013-9-25,75.4,61.8,49.8,60.3,54.5,48.7,98,79,48,29.93,29.76,12,0,12,0.00
2013-9-26,82.8,69.3,59.4,64.8,59.8,54.9,88,73,51,29.81,29.68,7,1,16,0.00
2013-9-27,76.8,68.5,58.8,69.4,64.0,55.2,95,86,71,29.77,29.66,15,0,15,0.10
2013-9-28,61.2,55.4,49.5,55.4,50.4,44.2,97,84,57,29.93,29.62,11,2,11,0.18
2013-9-29,75.6,59.3,45.1,54.7,48.0,41.9,92,69,40,29.94,29.66,6,0,8,0.00
2013-9-30,79.7,66.7,56.5,58.8,52.7,47.3,77,61,40,29.67,29.49,7,0,8,0.00
2013-10-1,71.8,62.8,51.4,54.9,45.8,36.7,79,56,29,29.99,29.49,8,2,10,0.00
2013-10-2,77.4,55.8,42.6,55.9,46.4,40.1,96,75,34,30.01,29.77,11,1,12,0.09
2013-10-3,55.4,53.6,51.4,54.9,52.7,50.4,98,97,95,29.99,29.86,7,1,7,0.00
2013-10-4,56.5,54.3,52.5,55.4,53.1,51.4,98,96,92,30.00,29.76,13,2,13,0.00
2013-10-5,58.1,49.4,42.1,57.2,45.2,38.7,97,86,65,29.81,29.70,9,1,10,0.00
2013-10-6,54.5,47.6,43.7,49.6,44.7,40.6,97,90,66,29.94,29.74,13,1,13,0.16
2013-10-7,66.7,51.9,42.4,50.9,44.2,39.0,96,77,40,30.01,29.89,5,0,5,0.00
2013-10-8,75.0,61.3,50.0,53.8,48.8,44.8,87,66,39,29.91,29.69,14,1,14,0.00
2013-10-9,75.6,62.8,53.8,57.9,51.7,48.2,85,68,46,29.97,29.82,7,0,8,0.00
2013-10-10,80.8,65.6,54.9,60.1,53.2,49.6,84,66,41,29.95,29.72,11,1,14,0.00
2013-10-11,68.0,60.6,52.5,61.2,54.4,44.8,93,80,64,29.74,29.45,15,2,15,0.25
2013-10-12,58.5,51.2,41.7,45.3,40.6,34.7,86,68,44,30.25,29.68,16,4,18,0.01
2013-10-13,58.8,45.6,34.5,41.7,35.8,31.3,93,71,41,30.46,30.25,4,0,4,0.00
2013-10-14,48.7,46.4,43.9,46.6,41.6,37.0,94,84,69,30.38,29.81,12,1,14,0.85
2013-10-15,49.6,46.7,43.3,48.2,45.4,41.7,96,95,92,29.99,29.67,17,2,17,0.53
2013-10-16,55.8,44.1,33.8,43.3,38.4,32.2,96,82,52,30.05,29.90,10,1,10,0.00
2013-10-17,48.6,41.1,37.9,45.1,38.6,35.2,95,91,86,30.01,29.84,16,1,17,0.12
2013-10-18,52.0,39.7,31.3,39.6,34.1,29.5,96,82,49,30.07,29.89,10,1,10,0.01
2013-10-19,43.7,38.3,32.7,40.5,32.7,27.3,95,81,56,29.89,29.76,13,2,13,0.02
2013-10-20,45.0,38.7,35.2,42.4,35.4,30.0,93,88,80,30.02,29.63,12,2,12,0.07
2013-10-21,41.9,34.5,27.0,30.7,26.6,23.5,90,73,54,30.06,30.00,10,2,11,0.00
2013-10-22,39.7,33.0,26.1,32.7,27.4,23.5,93,81,63,30.14,30.02,8,1,9,0.00
2013-10-23,39.9,35.3,31.8,29.8,27.6,24.3,89,74,56,30.23,30.09,11,1,14,0.00
2013-10-24,46.8,35.9,28.2,35.6,30.3,24.8,94,81,62,30.40,30.23,13,1,13,0.00
2013-10-25,62.1,42.7,25.9,45.9,34.7,23.4,91,75,53,30.39,29.85,13,2,15,0.00
2013-10-26,48.2,39.1,30.7,37.8,30.1,26.6,86,70,55,30.21,29.94,13,2,15,0.00
2013-10-27,56.3,40.8,29.5,39.4,31.6,25.5,86,71,50,30.20,29.85,11,1,11,0.00
2013-10-28,42.4,34.4,27.1,29.1,25.6,22.5,87,71,49,30.49,30.21,11,1,12,0.00
2013-10-29,37.4,35.1,32.7,34.2,30.5,24.6,91,83,72,30.46,30.13,9,1,10,0.00
2013-10-30,42.4,39.2,36.0,41.7,38.2,33.6,97,96,91,30.13,29.76,5,0,5,0.12
2013-10-31,41.4,38.9,36.5,38.7,37.0,35.2,97,93,87,29.76,29.49,7,2,7,0.00
2013-11-1,49.3,41.9,34.5,41.4,38.1,32.2,94,87,74,29.96,29.52,12,3,12,0.00
2013-11-2,52.5,40.8,31.3,40.6,35.3,29.5,95,82,57,30.12,29.96,7,1,7,0.00
2013-11-3,56.8,45.8,35.1,38.7,34.6,31.6,90,67,42,30.06,29.75,17,2,23,0.00
2013-11-4,48.9,41.5,31.8,39.7,34.6,27.7,89,77,56,30.19,29.74,12,2,12,0.02
2013-11-5,37.9,33.0,29.1,29.5,27.4,24.1,90,80,58,30.31,30.16,3,0,6,0.00
2013-11-6,44.1,33.1,25.0,35.8,27.4,21.6,92,80,55,30.24,30.15,9,1,9,0.02
2013-11-7,48.4,33.0,25.2,30.2,26.4,22.6,94,79,47,30.34,30.22,13,1,13,0.00
2013-11-8,46.2,36.9,27.3,42.1,31.3,24.3,92,81,60,30.22,29.63,17,2,17,0.00
2013-11-9,46.0,41.1,35.8,41.2,32.6,26.4,88,72,53,30.35,29.73,20,6,20,0.00
2013-11-10,37.2,33.1,24.1,31.5,27.4,20.5,89,80,72,30.40,30.15,11,1,11,0.00
2013-11-11,31.5,18.9,10.6,27.0,11.2,6.3,84,72,58,30.88,30.26,16,3,16,0.00
2013-11-12,33.4,19.5,6.6,17.2,10.3,3.0,89,70,40,30.91,30.45,11,1,11,0.00
2013-11-13,56.1,37.8,24.4,37.6,28.8,16.3,84,71,49,30.45,29.90,10,1,10,0.00
2013-11-14,53.8,41.5,32.2,39.9,34.5,28.9,90,77,59,29.91,29.81,13,1,13,0.00
2013-11-15,59.4,40.4,25.3,41.4,33.5,23.4,95,78,49,29.85,29.55,9,1,13,0.00
2013-11-16,48.0,42.5,36.3,46.0,40.2,33.6,95,92,80,29.55,29.24,7,0,8,0.00
2013-11-17,45.5,38.5,31.6,40.8,34.7,25.7,95,86,77,29.98,29.36,17,4,17,0.00
2013-11-18,37.0,29.9,24.8,26.4,23.2,20.3,86,76,62,30.27,29.98,15,2,15,0.00
2013-11-19,53.8,39.8,24.3,36.7,30.0,20.7,88,70,48,30.25,29.77,18,2,18,0.00
2013-11-20,52.2,42.8,28.6,36.3,32.2,24.6,87,67,53,30.11,29.76,12,1,13,0.00
2013-11-21,28.6,20.2,14.5,24.4,14.2,7.5,88,77,71,30.71,30.10,18,4,19,0.00
2013-11-22,36.9,17.1,6.3,15.1,7.4,2.3,85,68,25,30.85,30.56,19,2,19,0.00
2013-11-23,15.4,7.8,1.4,5.4,1.6,-2.6,85,76,59,31.03,30.77,11,2,11,0.00
2013-11-24,40.8,25.4,8.1,28.8,15.1,1.9,77,66,44,30.78,29.99,12,2,12,0.00
2013-11-25,38.8,34.4,28.2,29.8,25.7,19.9,84,71,57,30.22,29.96,17,4,17,0.00
2013-11-26,28.2,19.6,10.2,20.1,10.5,4.8,79,68,53,30.52,30.22,16,4,16,0.00
2013-11-27,24.4,14.6,4.5,13.1,7.9,1.0,90,75,59,30.53,30.07,11,0,11,0.00
2013-11-28,24.6,18.3,9.7,16.3,10.5,5.4,84,72,58,30.58,30.15,15,2,15,0.00
2013-11-29,35.8,22.1,7.2,22.5,14.8,2.7,87,74,56,30.58,30.12,13,1,13,0.00
2013-11-30,36.0,27.5,22.5,26.6,21.9,18.3,90,80,66,30.28,30.07,11,1,11,0.00
2013-12-1,32.4,26.6,21.7,24.6,21.7,18.7,88,82,72,30.28,29.90,5,0,5,0.00
2013-12-2,37.4,33.2,29.7,35.1,30.5,24.6,95,90,81,29.91,29.55,6,0,7,0.00
2013-12-3,33.8,31.8,28.0,32.9,30.9,27.0,97,96,95,29.83,29.62,7,1,8,0.00
2013-12-4,31.6,23.6,7.7,30.9,21.9,4.6,97,93,87,29.91,29.61,14,2,19,0.00
2013-12-5,8.1,2.6,-4.5,4.8,-2.3,-9.4,87,80,76,30.49,29.91,17,1,17,0.00
2013-12-6,1.6,-4.3,-9.4,-4.5,-9.5,-13.7,81,78,74,30.82,30.49,10,-7,10,0.00
2013-12-7,2.7,-6.7,-15.2,-4.9,-11.8,-19.5,85,78,66,30.87,30.66,6,0,6,0.00
2013-12-8,13.8,5.3,-4.4,9.0,1.5,-7.8,87,84,78,30.66,30.17,6,-3,7,0.00
2013-12-9,12.6,-0.7,-7.8,9.7,-5.1,-12.3,89,81,75,30.28,29.87,10,-1,12,0.00
2013-12-10,18.0,8.4,-0.9,14.7,3.4,-5.6,90,80,73,30.49,29.86,20,3,20,0.00
2013-12-11,6.6,-3.0,-11.7,2.8,-8.3,-16.1,84,78,68,30.71,30.35,10,-2,10,0.00
2013-12-12,22.5,14.3,6.6,15.4,9.8,2.5,87,82,71,30.40,30.21,5,0,5,0.00
2013-12-13,15.4,11.7,8.1,10.4,7.5,3.9,87,83,78,30.40,30.18,9,1,10,0.00
2013-12-14,11.7,7.0,0.0,6.6,2.7,-5.6,87,82,76,30.40,30.24,10,2,10,0.00
2013-12-15,5.5,1.9,-1.7,1.8,-2.9,-7.4,84,80,75,30.30,30.18,8,1,9,0.00
2013-12-16,34.0,18.6,5.5,28.8,14.5,1.6,89,84,77,30.18,30.01,12,2,12,0.00
2013-12-17,34.3,25.7,15.8,28.8,19.4,11.8,88,77,65,30.19,30.03,21,5,21,0.00
2013-12-18,41.2,27.4,16.0,31.1,21.5,11.3,88,79,66,30.06,29.70,13,1,13,0.00
2013-12-19,15.8,9.6,3.4,11.3,5.0,-0.9,88,81,76,30.19,29.96,14,2,14,0.00
2013-12-20,11.7,8.6,3.0,7.3,4.7,-0.4,88,84,79,30.18,29.97,7,1,7,0.00
2013-12-21,15.4,9.7,3.4,11.5,6.4,-0.2,90,86,82,30.17,29.96,8,1,10,0.00
2013-12-22,3.6,-0.5,-6.9,0.1,-5.0,-11.9,85,81,77,30.51,30.14,14,4,14,0.00
2013-12-23,-4.2,-9.6,-14.6,-11.9,-15.8,-20.0,79,73,67,30.71,30.51,12,-1,13,0.00
2013-12-24,16.5,2.9,-16.6,14.0,-1.8,-21.1,90,81,68,30.63,30.21,9,0,9,0.00
2013-12-25,30.7,22.0,16.5,29.3,18.9,13.6,95,88,79,30.26,30.12,19,2,19,0.03
2013-12-26,33.4,27.5,20.8,27.3,23.7,18.5,92,85,73,30.22,30.09,5,0,5,0.03
2013-12-27,41.2,32.8,23.0,34.2,28.7,20.3,93,85,73,30.21,29.97,10,2,10,0.00
2013-12-28,44.2,23.4,-2.2,34.7,19.8,-6.7,94,86,67,30.31,29.71,21,3,23,0.00
2013-12-29,-2.4,-8.9,-13.0,-6.9,-15.0,-18.8,81,74,61,30.57,30.31,19,3,24,0.00
2013-12-30,8.6,-0.5,-9.9,3.2,-5.2,-15.0,87,80,72,30.41,30.25,6,0,6,0.00
2013-12-31,2.1,-7.1,-12.8,-5.1,-12.0,-17.5,84,79,71,30.56,30.37,4,0,7,0.00
2014-1-1,0.7,-3.5,-7.2,-6.5,-10.1,-12.8,81,73,65,30.60,30.52,7,-5,7,0.00
2014-1-2,-3.8,-11.1,-18.8,-9.2,-15.9,-23.3,84,79,70,30.69,30.47,4,-4,4,0.00